Year,Month,Day,Hour,Minute,Value (Times are PST for temperature in C)
2015,07,02,00,00,20.30
2015,07,02,00,01,20.30
2015,07,02,00,02,20.20
2015,07,02,00,03,20.20
2015,07,02,00,04,20.10
2015,07,02,00,05,20.10
2015,07,02,00,06,20.00
2015,07,02,00,07,20.00
2015,07,02,00,08,19.90
2015,07,02,00,09,19.90
2015,07,02,00,10,19.80
2015,07,02,00,11,19.80
2015,07,02,00,12,19.80
2015,07,02,00,13,19.70
2015,07,02,00,14,19.70
2015,07,02,00,15,19.70
2015,07,02,00,16,19.60
2015,07,02,00,17,19.60
2015,07,02,00,18,19.60
2015,07,02,00,19,19.50
2015,07,02,00,20,19.50
2015,07,02,00,21,19.40
2015,07,02,00,22,19.40
2015,07,02,00,23,19.40
2015,07,02,00,24,19.40
2015,07,02,00,25,19.30
2015,07,02,00,26,19.30
2015,07,02,00,27,19.30
2015,07,02,00,28,19.30
2015,07,02,00,29,19.30
2015,07,02,00,30,19.20
2015,07,02,00,31,19.20
2015,07,02,00,32,19.20
2015,07,02,00,33,19.20
2015,07,02,00,34,19.10
2015,07,02,00,35,19.10
2015,07,02,00,36,19.10
2015,07,02,00,37,19.00
2015,07,02,00,38,19.00
2015,07,02,00,39,19.00
2015,07,02,00,40,18.90
2015,07,02,00,41,18.90
2015,07,02,00,42,18.90
2015,07,02,00,43,18.90
2015,07,02,00,44,18.90
2015,07,02,00,45,18.90
2015,07,02,00,46,18.90
2015,07,02,00,47,18.80
2015,07,02,00,48,18.80
2015,07,02,00,49,18.80
2015,07,02,00,50,18.80
2015,07,02,00,51,18.80
2015,07,02,00,52,18.80
2015,07,02,00,53,18.70
2015,07,02,00,54,18.70
2015,07,02,00,55,18.70
2015,07,02,00,56,18.70
2015,07,02,00,57,18.70
2015,07,02,00,58,18.70
2015,07,02,00,59,18.70
2015,07,02,01,00,18.70
2015,07,02,01,01,18.70
2015,07,02,01,02,18.70
2015,07,02,01,03,18.70
2015,07,02,01,04,18.70
2015,07,02,01,05,18.70
2015,07,02,01,06,18.70
2015,07,02,01,07,18.70
2015,07,02,01,08,18.70
2015,07,02,01,09,18.70
2015,07,02,01,10,18.70
2015,07,02,01,11,18.70
2015,07,02,01,12,18.60
2015,07,02,01,13,18.60
2015,07,02,01,14,18.60
2015,07,02,01,15,18.50
2015,07,02,01,16,18.50
2015,07,02,01,17,18.50
2015,07,02,01,18,18.40
2015,07,02,01,19,18.40
2015,07,02,01,20,18.40
2015,07,02,01,21,18.40
2015,07,02,01,22,18.30
2015,07,02,01,23,18.30
2015,07,02,01,24,18.30
2015,07,02,01,25,18.30
2015,07,02,01,26,18.30
2015,07,02,01,27,18.30
2015,07,02,01,28,18.30
2015,07,02,01,29,18.30
2015,07,02,01,30,18.30
2015,07,02,01,31,18.30
2015,07,02,01,32,18.20
2015,07,02,01,33,18.20
2015,07,02,01,34,18.20
2015,07,02,01,35,18.20
2015,07,02,01,36,18.10
2015,07,02,01,37,18.10
2015,07,02,01,38,18.10
2015,07,02,01,39,18.10
2015,07,02,01,40,18.00
2015,07,02,01,41,18.00
2015,07,02,01,42,17.90
2015,07,02,01,43,17.90
2015,07,02,01,44,17.90
2015,07,02,01,45,17.90
2015,07,02,01,46,17.90
2015,07,02,01,47,17.80
2015,07,02,01,48,17.80
2015,07,02,01,49,17.80
2015,07,02,01,50,17.80
2015,07,02,01,51,17.80
2015,07,02,01,52,17.80
2015,07,02,01,53,17.80
2015,07,02,01,54,17.80
2015,07,02,01,55,17.80
2015,07,02,01,56,17.70
2015,07,02,01,57,17.70
2015,07,02,01,58,17.70
2015,07,02,01,59,17.70
2015,07,02,02,00,17.70
2015,07,02,02,01,17.70
2015,07,02,02,02,17.70
2015,07,02,02,03,17.70
2015,07,02,02,04,17.70
2015,07,02,02,05,17.70
2015,07,02,02,06,17.70
2015,07,02,02,07,17.70
2015,07,02,02,08,17.70
2015,07,02,02,09,17.70
2015,07,02,02,10,17.70
2015,07,02,02,11,17.70
2015,07,02,02,12,17.70
2015,07,02,02,13,17.70
2015,07,02,02,14,17.60
2015,07,02,02,15,17.60
2015,07,02,02,16,17.60
2015,07,02,02,17,17.60
2015,07,02,02,18,17.60
2015,07,02,02,19,17.60
2015,07,02,02,20,17.60
2015,07,02,02,21,17.60
2015,07,02,02,22,17.60
2015,07,02,02,23,17.60
2015,07,02,02,24,17.60
2015,07,02,02,25,17.60
2015,07,02,02,26,17.60
2015,07,02,02,27,17.60
2015,07,02,02,28,17.50
2015,07,02,02,29,17.50
2015,07,02,02,30,17.50
2015,07,02,02,31,17.40
2015,07,02,02,32,17.40
2015,07,02,02,33,17.40
2015,07,02,02,34,17.40
2015,07,02,02,35,17.40
2015,07,02,02,36,17.40
2015,07,02,02,37,17.40
2015,07,02,02,38,17.40
2015,07,02,02,39,17.30
2015,07,02,02,40,17.30
2015,07,02,02,41,17.30
2015,07,02,02,42,17.30
2015,07,02,02,43,17.30
2015,07,02,02,44,17.30
2015,07,02,02,45,17.20
2015,07,02,02,46,17.20
2015,07,02,02,47,17.20
2015,07,02,02,48,17.20
2015,07,02,02,49,17.10
2015,07,02,02,50,17.10
2015,07,02,02,51,17.10
2015,07,02,02,52,17.10
2015,07,02,02,53,17.10
2015,07,02,02,54,17.10
2015,07,02,02,55,17.10
2015,07,02,02,56,17.10
2015,07,02,02,57,17.00
2015,07,02,02,58,17.00
2015,07,02,02,59,17.00
2015,07,02,03,00,16.90
2015,07,02,03,01,16.90
2015,07,02,03,02,16.90
2015,07,02,03,03,16.90
2015,07,02,03,04,16.90
2015,07,02,03,05,16.90
2015,07,02,03,06,16.90
2015,07,02,03,07,16.80
2015,07,02,03,08,16.80
2015,07,02,03,09,16.80
2015,07,02,03,10,16.80
2015,07,02,03,11,16.80
2015,07,02,03,12,16.80
2015,07,02,03,13,16.80
2015,07,02,03,14,16.80
2015,07,02,03,15,16.80
2015,07,02,03,16,16.80
2015,07,02,03,17,16.70
2015,07,02,03,18,16.70
2015,07,02,03,19,16.70
2015,07,02,03,20,16.70
2015,07,02,03,21,16.70
2015,07,02,03,22,16.70
2015,07,02,03,23,16.70
2015,07,02,03,24,16.70
2015,07,02,03,25,16.70
2015,07,02,03,26,16.70
2015,07,02,03,27,16.70
2015,07,02,03,28,16.70
2015,07,02,03,29,16.70
2015,07,02,03,30,16.70
2015,07,02,03,31,16.60
2015,07,02,03,32,16.60
2015,07,02,03,33,16.60
2015,07,02,03,34,16.60
2015,07,02,03,35,16.60
2015,07,02,03,36,16.60
2015,07,02,03,37,16.60
2015,07,02,03,38,16.60
2015,07,02,03,39,16.60
2015,07,02,03,40,16.60
2015,07,02,03,41,16.60
2015,07,02,03,42,16.50
2015,07,02,03,43,16.50
2015,07,02,03,44,16.50
2015,07,02,03,45,16.40
2015,07,02,03,46,16.40
2015,07,02,03,47,16.40
2015,07,02,03,48,16.40
2015,07,02,03,49,16.40
2015,07,02,03,50,16.40
2015,07,02,03,51,16.40
2015,07,02,03,52,16.40
2015,07,02,03,53,16.40
2015,07,02,03,54,16.40
2015,07,02,03,55,16.40
2015,07,02,03,56,16.40
2015,07,02,03,57,16.40
2015,07,02,03,58,16.40
2015,07,02,03,59,16.40
2015,07,02,04,00,16.40
2015,07,02,04,01,16.30
2015,07,02,04,02,16.30
2015,07,02,04,03,16.30
2015,07,02,04,04,16.30
2015,07,02,04,05,16.30
2015,07,02,04,06,16.20
2015,07,02,04,07,16.20
2015,07,02,04,08,16.20
2015,07,02,04,09,16.20
2015,07,02,04,10,16.20
2015,07,02,04,11,16.20
2015,07,02,04,12,16.10
2015,07,02,04,13,16.10
2015,07,02,04,14,16.10
2015,07,02,04,15,16.10
2015,07,02,04,16,16.10
2015,07,02,04,17,16.10
2015,07,02,04,18,16.00
2015,07,02,04,19,16.00
2015,07,02,04,20,16.00
2015,07,02,04,21,16.00
2015,07,02,04,22,16.00
2015,07,02,04,23,16.10
2015,07,02,04,24,16.10
2015,07,02,04,25,16.10
2015,07,02,04,26,16.10
2015,07,02,04,27,16.10
2015,07,02,04,28,16.10
2015,07,02,04,29,16.10
2015,07,02,04,30,16.10
2015,07,02,04,31,16.10
2015,07,02,04,32,16.10
2015,07,02,04,33,16.10
2015,07,02,04,34,16.10
2015,07,02,04,35,16.10
2015,07,02,04,36,16.10
2015,07,02,04,37,16.10
2015,07,02,04,38,16.10
2015,07,02,04,39,16.10
2015,07,02,04,40,16.00
2015,07,02,04,41,16.00
2015,07,02,04,42,16.00
2015,07,02,04,43,16.00
2015,07,02,04,44,15.90
2015,07,02,04,45,15.90
2015,07,02,04,46,15.90
2015,07,02,04,47,15.90
2015,07,02,04,48,15.90
2015,07,02,04,49,15.90
2015,07,02,04,50,15.90
2015,07,02,04,51,15.90
2015,07,02,04,52,15.90
2015,07,02,04,53,15.90
2015,07,02,04,54,15.80
2015,07,02,04,55,15.80
2015,07,02,04,56,15.80
2015,07,02,04,57,15.80
2015,07,02,04,58,15.80
2015,07,02,04,59,15.70
2015,07,02,05,00,15.70
2015,07,02,05,01,15.70
2015,07,02,05,02,15.70
2015,07,02,05,03,15.70
2015,07,02,05,04,15.70
2015,07,02,05,05,15.70
2015,07,02,05,06,15.70
2015,07,02,05,07,15.60
2015,07,02,05,08,15.60
2015,07,02,05,09,15.60
2015,07,02,05,10,15.60
2015,07,02,05,11,15.60
2015,07,02,05,12,15.50
2015,07,02,05,13,15.50
2015,07,02,05,14,15.50
2015,07,02,05,15,15.40
2015,07,02,05,16,15.40
2015,07,02,05,17,15.40
2015,07,02,05,18,15.40
2015,07,02,05,19,15.40
2015,07,02,05,20,15.40
2015,07,02,05,21,15.40
2015,07,02,05,22,15.30
2015,07,02,05,23,15.30
2015,07,02,05,24,15.30
2015,07,02,05,25,15.30
2015,07,02,05,26,15.30
2015,07,02,05,27,15.30
2015,07,02,05,28,15.30
2015,07,02,05,29,15.30
2015,07,02,05,30,15.20
2015,07,02,05,31,15.20
2015,07,02,05,32,15.20
2015,07,02,05,33,15.10
2015,07,02,05,34,15.10
2015,07,02,05,35,15.00
2015,07,02,05,36,15.00
2015,07,02,05,37,15.00
2015,07,02,05,38,15.00
2015,07,02,05,39,15.00
2015,07,02,05,40,15.00
2015,07,02,05,41,15.00
2015,07,02,05,42,15.00
2015,07,02,05,43,15.00
2015,07,02,05,44,15.00
2015,07,02,05,45,15.00
2015,07,02,05,46,15.00
2015,07,02,05,47,15.00
2015,07,02,05,48,15.00
2015,07,02,05,49,15.00
2015,07,02,05,50,15.00
2015,07,02,05,51,15.00
2015,07,02,05,52,15.00
2015,07,02,05,53,15.00
2015,07,02,05,54,15.00
2015,07,02,05,55,15.00
2015,07,02,05,56,15.00
2015,07,02,05,57,15.00
2015,07,02,05,58,15.00
2015,07,02,05,59,15.00
2015,07,02,06,00,15.00
2015,07,02,06,01,15.00
2015,07,02,06,02,15.00
2015,07,02,06,03,15.10
2015,07,02,06,04,15.10
2015,07,02,06,05,15.20
2015,07,02,06,06,15.20
2015,07,02,06,07,15.30
2015,07,02,06,08,15.30
2015,07,02,06,09,15.30
2015,07,02,06,10,15.30
2015,07,02,06,11,15.40
2015,07,02,06,12,15.50
2015,07,02,06,13,15.50
2015,07,02,06,14,15.60
2015,07,02,06,15,15.60
2015,07,02,06,16,15.60
2015,07,02,06,17,15.70
2015,07,02,06,18,15.70
2015,07,02,06,19,15.70
2015,07,02,06,20,15.80
2015,07,02,06,21,15.80
2015,07,02,06,22,15.80
2015,07,02,06,23,15.90
2015,07,02,06,24,15.90
2015,07,02,06,25,15.90
2015,07,02,06,26,15.90
2015,07,02,06,27,15.90
2015,07,02,06,28,16.00
2015,07,02,06,29,16.00
2015,07,02,06,30,16.10
2015,07,02,06,31,16.10
2015,07,02,06,32,16.10
2015,07,02,06,33,16.10
2015,07,02,06,34,16.20
2015,07,02,06,35,16.20
2015,07,02,06,36,16.20
2015,07,02,06,37,16.30
2015,07,02,06,38,16.30
2015,07,02,06,39,16.30
2015,07,02,06,40,16.30
2015,07,02,06,41,16.30
2015,07,02,06,42,16.30
2015,07,02,06,43,16.40
2015,07,02,06,44,16.40
2015,07,02,06,45,16.40
2015,07,02,06,46,16.50
2015,07,02,06,47,16.60
2015,07,02,06,48,16.60
2015,07,02,06,49,16.70
2015,07,02,06,50,16.70
2015,07,02,06,51,16.80
2015,07,02,06,52,16.80
2015,07,02,06,53,16.90
2015,07,02,06,54,17.00
2015,07,02,06,55,17.10
2015,07,02,06,56,17.20
2015,07,02,06,57,17.20
2015,07,02,06,58,17.30
2015,07,02,06,59,17.40
2015,07,02,07,00,17.50
2015,07,02,07,01,17.60
2015,07,02,07,02,17.70
2015,07,02,07,03,17.80
2015,07,02,07,04,17.90
2015,07,02,07,05,18.00
2015,07,02,07,06,18.20
2015,07,02,07,07,18.30
2015,07,02,07,08,18.40
2015,07,02,07,09,18.40
2015,07,02,07,10,18.50
2015,07,02,07,11,18.60
2015,07,02,07,12,18.60
2015,07,02,07,13,18.70
2015,07,02,07,14,18.70
2015,07,02,07,15,18.80
2015,07,02,07,16,18.90
2015,07,02,07,17,18.90
2015,07,02,07,18,19.00
2015,07,02,07,19,19.10
2015,07,02,07,20,19.10
2015,07,02,07,21,19.10
2015,07,02,07,22,19.00
2015,07,02,07,23,19.00
2015,07,02,07,24,18.90
2015,07,02,07,25,18.90
2015,07,02,07,26,18.90
2015,07,02,07,27,18.90
2015,07,02,07,28,18.90
2015,07,02,07,29,18.90
2015,07,02,07,30,18.90
2015,07,02,07,31,18.90
2015,07,02,07,32,18.90
2015,07,02,07,33,18.90
2015,07,02,07,34,18.90
2015,07,02,07,35,18.90
2015,07,02,07,36,18.90
2015,07,02,07,37,19.00
2015,07,02,07,38,19.00
2015,07,02,07,39,19.10
2015,07,02,07,40,19.20
2015,07,02,07,41,19.20
2015,07,02,07,42,19.30
2015,07,02,07,43,19.30
2015,07,02,07,44,19.40
2015,07,02,07,45,19.50
2015,07,02,07,46,19.50
2015,07,02,07,47,19.60
2015,07,02,07,48,19.60
2015,07,02,07,49,19.70
2015,07,02,07,50,19.60
2015,07,02,07,51,19.60
2015,07,02,07,52,19.60
2015,07,02,07,53,19.70
2015,07,02,07,54,19.70
2015,07,02,07,55,19.70
2015,07,02,07,56,19.70
2015,07,02,07,57,19.70
2015,07,02,07,58,19.70
2015,07,02,07,59,19.60
2015,07,02,08,00,19.60
2015,07,02,08,01,19.60
2015,07,02,08,02,19.60
2015,07,02,08,03,19.70
2015,07,02,08,04,19.70
2015,07,02,08,05,19.70
2015,07,02,08,06,19.70
2015,07,02,08,07,19.70
2015,07,02,08,08,19.70
2015,07,02,08,09,19.70
2015,07,02,08,10,19.70
2015,07,02,08,11,19.70
2015,07,02,08,12,19.70
2015,07,02,08,13,19.70
2015,07,02,08,14,19.70
2015,07,02,08,15,19.80
2015,07,02,08,16,19.80
2015,07,02,08,17,19.80
2015,07,02,08,18,19.80
2015,07,02,08,19,19.80
2015,07,02,08,20,19.80
2015,07,02,08,21,19.80
2015,07,02,08,22,19.80
2015,07,02,08,23,19.90
2015,07,02,08,24,19.90
2015,07,02,08,25,19.90
2015,07,02,08,26,19.90
2015,07,02,08,27,19.90
2015,07,02,08,28,19.90
2015,07,02,08,29,19.90
2015,07,02,08,30,19.90
2015,07,02,08,31,19.90
2015,07,02,08,32,20.00
2015,07,02,08,33,20.00
2015,07,02,08,34,20.00
2015,07,02,08,35,20.10
2015,07,02,08,36,20.10
2015,07,02,08,37,20.10
2015,07,02,08,38,20.10
2015,07,02,08,39,20.20
2015,07,02,08,40,20.30
2015,07,02,08,41,20.30
2015,07,02,08,42,20.30
2015,07,02,08,43,20.40
2015,07,02,08,44,20.40
2015,07,02,08,45,20.40
2015,07,02,08,46,20.40
2015,07,02,08,47,20.40
2015,07,02,08,48,20.30
2015,07,02,08,49,20.20
2015,07,02,08,50,20.20
2015,07,02,08,51,20.10
2015,07,02,08,52,20.10
2015,07,02,08,53,20.00
2015,07,02,08,54,20.00
2015,07,02,08,55,19.90
2015,07,02,08,56,19.90
2015,07,02,08,57,19.90
2015,07,02,08,58,19.90
2015,07,02,08,59,19.80
2015,07,02,09,00,19.80
2015,07,02,09,01,19.80
2015,07,02,09,02,19.70
2015,07,02,09,03,19.70
2015,07,02,09,04,19.70
2015,07,02,09,05,19.70
2015,07,02,09,06,19.60
2015,07,02,09,07,19.70
2015,07,02,09,08,19.60
2015,07,02,09,09,19.60
2015,07,02,09,10,19.60
2015,07,02,09,11,19.60
2015,07,02,09,12,19.60
2015,07,02,09,13,19.70
2015,07,02,09,14,19.70
2015,07,02,09,15,19.80
2015,07,02,09,16,19.80
2015,07,02,09,17,19.80
2015,07,02,09,18,19.80
2015,07,02,09,19,19.70
2015,07,02,09,20,19.70
2015,07,02,09,21,19.70
2015,07,02,09,22,19.80
2015,07,02,09,23,19.80
2015,07,02,09,24,19.90
2015,07,02,09,25,19.90
2015,07,02,09,26,20.00
2015,07,02,09,27,20.10
2015,07,02,09,28,20.10
2015,07,02,09,29,20.10
2015,07,02,09,30,20.10
2015,07,02,09,31,20.10
2015,07,02,09,32,20.20
2015,07,02,09,33,20.20
2015,07,02,09,34,20.20
2015,07,02,09,35,20.20
2015,07,02,09,36,20.20
2015,07,02,09,37,20.20
2015,07,02,09,38,20.10
2015,07,02,09,39,20.10
2015,07,02,09,40,20.00
2015,07,02,09,41,20.00
2015,07,02,09,42,20.00
2015,07,02,09,43,20.10
2015,07,02,09,44,20.20
2015,07,02,09,45,20.30
2015,07,02,09,46,20.40
2015,07,02,09,47,20.50
2015,07,02,09,48,20.60
2015,07,02,09,49,20.70
2015,07,02,09,50,20.80
2015,07,02,09,51,20.80
2015,07,02,09,52,20.80
2015,07,02,09,53,20.80
2015,07,02,09,54,20.80
2015,07,02,09,55,20.80
2015,07,02,09,56,20.80
2015,07,02,09,57,20.80
2015,07,02,09,58,20.80
2015,07,02,09,59,20.80
2015,07,02,10,00,20.80
2015,07,02,10,01,20.70
2015,07,02,10,02,20.60
2015,07,02,10,03,20.60
2015,07,02,10,04,20.60
2015,07,02,10,05,20.60
2015,07,02,10,06,20.50
2015,07,02,10,07,20.50
2015,07,02,10,08,20.60
2015,07,02,10,09,20.60
2015,07,02,10,10,20.60
2015,07,02,10,11,20.70
2015,07,02,10,12,20.70
2015,07,02,10,13,20.80
2015,07,02,10,14,20.80
2015,07,02,10,15,20.80
2015,07,02,10,16,20.80
2015,07,02,10,17,20.80
2015,07,02,10,18,20.80
2015,07,02,10,19,20.80
2015,07,02,10,20,20.80
2015,07,02,10,21,20.80
2015,07,02,10,22,20.80
2015,07,02,10,23,20.80
2015,07,02,10,24,20.80
2015,07,02,10,25,20.90
2015,07,02,10,26,20.90
2015,07,02,10,27,20.90
2015,07,02,10,28,21.00
2015,07,02,10,29,21.10
2015,07,02,10,30,21.10
2015,07,02,10,31,21.10
2015,07,02,10,32,21.10
2015,07,02,10,33,21.10
2015,07,02,10,34,21.10
2015,07,02,10,35,21.10
2015,07,02,10,36,21.10
2015,07,02,10,37,21.10
2015,07,02,10,38,21.10
2015,07,02,10,39,21.20
2015,07,02,10,40,21.20
2015,07,02,10,41,21.10
2015,07,02,10,42,21.10
2015,07,02,10,43,21.10
2015,07,02,10,44,21.10
2015,07,02,10,45,21.00
2015,07,02,10,46,21.00
2015,07,02,10,47,21.00
2015,07,02,10,48,21.00
2015,07,02,10,49,21.00
2015,07,02,10,50,21.10
2015,07,02,10,51,21.10
2015,07,02,10,52,21.10
2015,07,02,10,53,21.10
2015,07,02,10,54,21.10
2015,07,02,10,55,21.10
2015,07,02,10,56,21.10
2015,07,02,10,57,21.20
2015,07,02,10,58,21.30
2015,07,02,10,59,21.40
2015,07,02,11,00,21.50
2015,07,02,11,01,21.50
2015,07,02,11,02,21.50
2015,07,02,11,03,21.50
2015,07,02,11,04,21.50
2015,07,02,11,05,21.50
2015,07,02,11,06,21.60
2015,07,02,11,07,21.60
2015,07,02,11,08,21.60
2015,07,02,11,09,21.60
2015,07,02,11,10,21.70
2015,07,02,11,11,21.80
2015,07,02,11,12,21.80
2015,07,02,11,13,21.90
2015,07,02,11,14,21.90
2015,07,02,11,15,21.90
2015,07,02,11,16,21.90
2015,07,02,11,17,22.00
2015,07,02,11,18,22.10
2015,07,02,11,19,22.10
2015,07,02,11,20,22.20
2015,07,02,11,21,22.20
2015,07,02,11,22,22.30
2015,07,02,11,23,22.30
2015,07,02,11,24,22.30
2015,07,02,11,25,22.30
2015,07,02,11,26,22.20
2015,07,02,11,27,22.00
2015,07,02,11,28,21.90
2015,07,02,11,29,21.90
2015,07,02,11,30,21.90
2015,07,02,11,31,21.90
2015,07,02,11,32,22.00
2015,07,02,11,33,22.10
2015,07,02,11,34,22.10
2015,07,02,11,35,22.20
2015,07,02,11,36,22.30
2015,07,02,11,37,22.40
2015,07,02,11,38,22.50
2015,07,02,11,39,22.60
2015,07,02,11,40,22.70
2015,07,02,11,41,22.70
2015,07,02,11,42,22.70
2015,07,02,11,43,22.70
2015,07,02,11,44,22.80
2015,07,02,11,45,22.80
2015,07,02,11,46,22.90
2015,07,02,11,47,23.00
2015,07,02,11,48,23.10
2015,07,02,11,49,23.10
2015,07,02,11,50,23.10
2015,07,02,11,51,23.00
2015,07,02,11,52,22.80
2015,07,02,11,53,22.80
2015,07,02,11,54,22.70
2015,07,02,11,55,22.60
2015,07,02,11,56,22.60
2015,07,02,11,57,22.50
2015,07,02,11,58,22.40
2015,07,02,11,59,22.30
2015,07,02,12,00,22.30
2015,07,02,12,01,22.30
2015,07,02,12,02,22.30
2015,07,02,12,03,22.30
2015,07,02,12,04,22.20
2015,07,02,12,05,22.10
2015,07,02,12,06,22.00
2015,07,02,12,07,22.00
2015,07,02,12,08,22.00
2015,07,02,12,09,22.20
2015,07,02,12,10,22.30
2015,07,02,12,11,22.50
2015,07,02,12,12,22.70
2015,07,02,12,13,22.80
2015,07,02,12,14,23.00
2015,07,02,12,15,23.10
2015,07,02,12,16,23.30
2015,07,02,12,17,23.40
2015,07,02,12,18,23.40
2015,07,02,12,19,23.40
2015,07,02,12,20,23.40
2015,07,02,12,21,23.50
2015,07,02,12,22,23.50
2015,07,02,12,23,23.50
2015,07,02,12,24,23.40
2015,07,02,12,25,23.30
2015,07,02,12,26,23.20
2015,07,02,12,27,23.20
2015,07,02,12,28,23.30
2015,07,02,12,29,23.30
2015,07,02,12,30,23.40
2015,07,02,12,31,23.50
2015,07,02,12,32,23.50
2015,07,02,12,33,23.60
2015,07,02,12,34,23.80
2015,07,02,12,35,23.90
2015,07,02,12,36,24.10
2015,07,02,12,37,24.30
2015,07,02,12,38,24.50
2015,07,02,12,39,24.70
2015,07,02,12,40,24.80
2015,07,02,12,41,24.80
2015,07,02,12,42,24.80
2015,07,02,12,43,24.80
2015,07,02,12,44,24.90
2015,07,02,12,45,24.90
2015,07,02,12,46,24.90
2015,07,02,12,47,25.00
2015,07,02,12,48,25.10
2015,07,02,12,49,25.20
2015,07,02,12,50,25.30
2015,07,02,12,51,25.40
2015,07,02,12,52,25.50
2015,07,02,12,53,25.60
2015,07,02,12,54,25.80
2015,07,02,12,55,25.90
2015,07,02,12,56,26.00
2015,07,02,12,57,26.10
2015,07,02,12,58,26.30
2015,07,02,12,59,26.40
2015,07,02,13,00,26.50
2015,07,02,13,01,26.60
2015,07,02,13,02,26.60
2015,07,02,13,03,26.70
2015,07,02,13,04,26.70
2015,07,02,13,05,26.80
2015,07,02,13,06,26.80
2015,07,02,13,07,26.70
2015,07,02,13,08,26.60
2015,07,02,13,09,26.50
2015,07,02,13,10,26.40
2015,07,02,13,11,26.30
2015,07,02,13,12,26.30
2015,07,02,13,13,26.20
2015,07,02,13,14,26.20
2015,07,02,13,15,26.20
2015,07,02,13,16,26.20
2015,07,02,13,17,26.10
2015,07,02,13,18,26.10
2015,07,02,13,19,26.00
2015,07,02,13,20,25.90
2015,07,02,13,21,25.70
2015,07,02,13,22,25.50
2015,07,02,13,23,25.40
2015,07,02,13,24,25.20
2015,07,02,13,25,25.10
2015,07,02,13,26,25.10
2015,07,02,13,27,25.20
2015,07,02,13,28,25.20
2015,07,02,13,29,25.30
2015,07,02,13,30,25.30
2015,07,02,13,31,25.40
2015,07,02,13,32,25.50
2015,07,02,13,33,25.60
2015,07,02,13,34,25.70
2015,07,02,13,35,25.80
2015,07,02,13,36,25.90
2015,07,02,13,37,25.90
2015,07,02,13,38,26.10
2015,07,02,13,39,26.20
2015,07,02,13,40,26.20
2015,07,02,13,41,26.30
2015,07,02,13,42,26.40
2015,07,02,13,43,26.60
2015,07,02,13,44,26.70
2015,07,02,13,45,26.80
2015,07,02,13,46,26.90
2015,07,02,13,47,27.00
2015,07,02,13,48,27.10
2015,07,02,13,49,27.20
2015,07,02,13,50,27.30
2015,07,02,13,51,27.40
2015,07,02,13,52,27.50
2015,07,02,13,53,27.60
2015,07,02,13,54,27.60
2015,07,02,13,55,27.60
2015,07,02,13,56,27.60
2015,07,02,13,57,27.50
2015,07,02,13,58,27.40
2015,07,02,13,59,27.30
2015,07,02,14,00,27.20
2015,07,02,14,01,27.10
2015,07,02,14,02,27.00
2015,07,02,14,03,26.90
2015,07,02,14,04,26.80
2015,07,02,14,05,26.80
2015,07,02,14,06,26.80
2015,07,02,14,07,26.70
2015,07,02,14,08,26.70
2015,07,02,14,09,26.70
2015,07,02,14,10,26.70
2015,07,02,14,11,26.70
2015,07,02,14,12,26.70
2015,07,02,14,13,26.70
2015,07,02,14,14,26.70
2015,07,02,14,15,26.70
2015,07,02,14,16,26.60
2015,07,02,14,17,26.60
2015,07,02,14,18,26.70
2015,07,02,14,19,26.70
2015,07,02,14,20,26.80
2015,07,02,14,21,26.80
2015,07,02,14,22,26.80
2015,07,02,14,23,26.90
2015,07,02,14,24,26.90
2015,07,02,14,25,27.00
2015,07,02,14,26,27.10
2015,07,02,14,27,27.20
2015,07,02,14,28,27.20
2015,07,02,14,29,27.30
2015,07,02,14,30,27.40
2015,07,02,14,31,27.50
2015,07,02,14,32,27.60
2015,07,02,14,33,27.50
2015,07,02,14,34,27.50
2015,07,02,14,35,27.40
2015,07,02,14,36,27.40
2015,07,02,14,37,27.40
2015,07,02,14,38,27.50
2015,07,02,14,39,27.50
2015,07,02,14,40,27.50
2015,07,02,14,41,27.40
2015,07,02,14,42,27.40
2015,07,02,14,43,27.50
2015,07,02,14,44,27.50
2015,07,02,14,45,27.60
2015,07,02,14,46,27.60
2015,07,02,14,47,27.60
2015,07,02,14,48,27.60
2015,07,02,14,49,27.60
2015,07,02,14,50,27.70
2015,07,02,14,51,27.70
2015,07,02,14,52,27.80
2015,07,02,14,53,27.90
2015,07,02,14,54,27.90
2015,07,02,14,55,27.80
2015,07,02,14,56,27.70
2015,07,02,14,57,27.70
2015,07,02,14,58,27.80
2015,07,02,14,59,27.80
2015,07,02,15,00,27.90
2015,07,02,15,01,27.90
2015,07,02,15,02,28.00
2015,07,02,15,03,28.10
2015,07,02,15,04,28.10
2015,07,02,15,05,28.20
2015,07,02,15,06,28.30
2015,07,02,15,07,28.30
2015,07,02,15,08,28.20
2015,07,02,15,09,28.20
2015,07,02,15,10,28.20
2015,07,02,15,11,28.10
2015,07,02,15,12,28.10
2015,07,02,15,13,28.00
2015,07,02,15,14,28.00
2015,07,02,15,15,28.10
2015,07,02,15,16,28.10
2015,07,02,15,17,28.10
2015,07,02,15,18,28.20
2015,07,02,15,19,28.20
2015,07,02,15,20,28.20
2015,07,02,15,21,28.20
2015,07,02,15,22,28.20
2015,07,02,15,23,28.20
2015,07,02,15,24,28.20
2015,07,02,15,25,28.30
2015,07,02,15,26,28.30
2015,07,02,15,27,28.40
2015,07,02,15,28,28.40
2015,07,02,15,29,28.30
2015,07,02,15,30,28.30
2015,07,02,15,31,28.40
2015,07,02,15,32,28.40
2015,07,02,15,33,28.40
2015,07,02,15,34,28.40
2015,07,02,15,35,28.50
2015,07,02,15,36,28.50
2015,07,02,15,37,28.60
2015,07,02,15,38,28.60
2015,07,02,15,39,28.70
2015,07,02,15,40,28.70
2015,07,02,15,41,28.70
2015,07,02,15,42,28.80
2015,07,02,15,43,28.90
2015,07,02,15,44,28.90
2015,07,02,15,45,29.00
2015,07,02,15,46,29.00
2015,07,02,15,47,29.10
2015,07,02,15,48,29.20
2015,07,02,15,49,29.20
2015,07,02,15,50,29.10
2015,07,02,15,51,29.10
2015,07,02,15,52,29.10
2015,07,02,15,53,29.10
2015,07,02,15,54,29.10
2015,07,02,15,55,29.10
2015,07,02,15,56,29.10
2015,07,02,15,57,29.00
2015,07,02,15,58,29.00
2015,07,02,15,59,28.90
2015,07,02,16,00,28.90
2015,07,02,16,01,28.90
2015,07,02,16,02,28.90
2015,07,02,16,03,28.90
2015,07,02,16,04,28.80
2015,07,02,16,05,28.90
2015,07,02,16,06,29.00
2015,07,02,16,07,29.00
2015,07,02,16,08,29.10
2015,07,02,16,09,29.10
2015,07,02,16,10,29.20
2015,07,02,16,11,29.20
2015,07,02,16,12,29.20
2015,07,02,16,13,29.10
2015,07,02,16,14,29.10
2015,07,02,16,15,29.10
2015,07,02,16,16,29.10
2015,07,02,16,17,29.10
2015,07,02,16,18,29.10
2015,07,02,16,19,29.10
2015,07,02,16,20,29.10
2015,07,02,16,21,29.10
2015,07,02,16,22,29.10
2015,07,02,16,23,29.10
2015,07,02,16,24,29.00
2015,07,02,16,25,29.00
2015,07,02,16,26,29.00
2015,07,02,16,27,29.00
2015,07,02,16,28,29.00
2015,07,02,16,29,29.10
2015,07,02,16,30,29.10
2015,07,02,16,31,29.10
2015,07,02,16,32,29.10
2015,07,02,16,33,29.10
2015,07,02,16,34,29.10
2015,07,02,16,35,29.10
2015,07,02,16,36,29.20
2015,07,02,16,37,29.30
2015,07,02,16,38,29.30
2015,07,02,16,39,29.40
2015,07,02,16,40,29.40
2015,07,02,16,41,29.50
2015,07,02,16,42,29.60
2015,07,02,16,43,29.70
2015,07,02,16,44,29.70
2015,07,02,16,45,29.60
2015,07,02,16,46,29.50
2015,07,02,16,47,29.50
2015,07,02,16,48,29.40
2015,07,02,16,49,29.30
2015,07,02,16,50,29.30
2015,07,02,16,51,29.30
2015,07,02,16,52,29.30
2015,07,02,16,53,29.20
2015,07,02,16,54,29.20
2015,07,02,16,55,29.20
2015,07,02,16,56,29.20
2015,07,02,16,57,29.20
2015,07,02,16,58,29.20
2015,07,02,16,59,29.10
2015,07,02,17,00,29.10
2015,07,02,17,01,29.20
2015,07,02,17,02,29.20
2015,07,02,17,03,29.30
2015,07,02,17,04,29.30
2015,07,02,17,05,29.50
2015,07,02,17,06,29.60
2015,07,02,17,07,29.60
2015,07,02,17,08,29.60
2015,07,02,17,09,29.60
2015,07,02,17,10,29.60
2015,07,02,17,11,29.50
2015,07,02,17,12,29.50
2015,07,02,17,13,29.50
2015,07,02,17,14,29.50
2015,07,02,17,15,29.50
2015,07,02,17,16,29.50
2015,07,02,17,17,29.50
2015,07,02,17,18,29.40
2015,07,02,17,19,29.40